When you browse on this site, cookies collect data to enhance your experience and personalize the content and advertising you see.
Visit our Privacy Policy to learn more. By continuing to use the site, you agree to this use of cookies and data.
  • In Romania
  • List of Countries
  • For 7 days
  • Water Temperature
  • Satellite Maps
  • Weather Map
  • Weather Widgets
  • user-avatar
    Login

    Hourly Weather Maturín

    Today, 17 January, Thursday

    Time Temperature Precipitation Wind Pressure Humidity
    00:00 +24°C° 0.1 mm 1 mps 758 mmHg 94%
    01:00 +24°C° 0.1 mm 1 mps 758 mmHg 96%
    02:00 +23°C° 0 mm 1 mps 757 mmHg 98%
    03:00 +23°C° 0 mm 1 mps 757 mmHg 98%
    04:00 +23°C° 0 mm 1 mps 757 mmHg 98%
    05:00 +23°C° 0 mm 1 mps 757 mmHg 98%
    06:00 +24°C° 0 mm 1 mps 758 mmHg 95%
    07:00 +25°C° 0 mm 1 mps 758 mmHg 92%
    08:00 +25°C° 0 mm 1 mps 758 mmHg 89%
    09:00 +27°C° 0.1 mm 2 mps 759 mmHg 79%
    10:00 +29°C° 0.1 mm 2 mps 759 mmHg 69%
    11:00 +31°C° 0.1 mm 3 mps 759 mmHg 59%
    12:00 +33°C° 0.1 mm 3 mps 758 mmHg 55%
    13:00 +34°C° 0.1 mm 4 mps 757 mmHg 52%
    14:00 +35°C° 0.1 mm 4 mps 757 mmHg 48%
    15:00 +34°C° 0 mm 4 mps 756 mmHg 50%
    16:00 +33°C° 0 mm 4 mps 756 mmHg 51%
    17:00 +33°C° 0 mm 4 mps 756 mmHg 53%
    18:00 +30°C° 0 mm 3 mps 756 mmHg 61%
    19:00 +28°C° 0 mm 3 mps 756 mmHg 68%
    20:00 +27°C° 0 mm 2 mps 757 mmHg 75%
    21:00 +26°C° 0 mm 2 mps 757 mmHg 80%
    22:00 +25°C° 0 mm 2 mps 757 mmHg 85%
    23:00 +24°C° 0 mm 1 mps 758 mmHg 90%

    Tomorrow, 18 January, Friday

    Time Temperature Precipitation Wind Pressure Humidity
    00:00 +24°C° 0 mm 1 mps 757 mmHg 93%
    01:00 +24°C° 0 mm 1 mps 757 mmHg 95%
    02:00 +23°C° 0 mm 1 mps 757 mmHg 97%
    03:00 +23°C° 0 mm 1 mps 757 mmHg 98%
    04:00 +23°C° 0 mm 1 mps 757 mmHg 98%
    05:00 +23°C° 0 mm 1 mps 756 mmHg 98%
    06:00 +24°C° 0.2 mm 1 mps 757 mmHg 96%
    07:00 +25°C° 0.2 mm 2 mps 757 mmHg 94%
    08:00 +25°C° 0.2 mm 2 mps 757 mmHg 91%
    09:00 +27°C° 0.1 mm 2 mps 757 mmHg 81%
    10:00 +29°C° 0.1 mm 3 mps 758 mmHg 71%
    11:00 +31°C° 0.1 mm 3 mps 758 mmHg 61%
    12:00 +33°C° 0 mm 3 mps 757 mmHg 56%
    13:00 +34°C° 0 mm 3 mps 756 mmHg 50%
    14:00 +35°C° 0 mm 3 mps 755 mmHg 45%
    15:00 +34°C° 0 mm 3 mps 755 mmHg 47%
    16:00 +33°C° 0 mm 3 mps 755 mmHg 49%
    17:00 +33°C° 0 mm 3 mps 754 mmHg 50%
    18:00 +30°C° 0 mm 3 mps 755 mmHg 57%
    19:00 +28°C° 0 mm 3 mps 755 mmHg 64%
    20:00 +27°C° 0 mm 2 mps 756 mmHg 71%
    21:00 +26°C° 0 mm 2 mps 756 mmHg 77%
    22:00 +25°C° 0 mm 2 mps 757 mmHg 83%
    23:00 +24°C° 0 mm 2 mps 757 mmHg 89%

    Day after tomorrow, 19 January, Saturday

    Time Temperature Precipitation Wind Pressure Humidity
    00:00 +23°C° 0 mm 1 mps 757 mmHg 92%
    01:00 +23°C° 0 mm 1 mps 756 mmHg 94%
    02:00 +23°C° 0 mm 1 mps 756 mmHg 96%
    03:00 +22°C° 0 mm 1 mps 756 mmHg 97%
    04:00 +22°C° 0 mm 1 mps 756 mmHg 97%
    05:00 +22°C° 0 mm 1 mps 756 mmHg 97%
    06:00 +23°C° 0 mm 1 mps 757 mmHg 93%
    07:00 +24°C° 0 mm 1 mps 757 mmHg 88%
    08:00 +25°C° 0 mm 1 mps 758 mmHg 84%
    09:00 +28°C° 0 mm 2 mps 758 mmHg 73%
    10:00 +30°C° 0 mm 2 mps 758 mmHg 63%
    11:00 +33°C° 0 mm 3 mps 758 mmHg 53%
    12:00 +34°C° 0 mm 3 mps 757 mmHg 50%
    13:00 +34°C° 0 mm 3 mps 756 mmHg 48%
    14:00 +35°C° 0 mm 3 mps 755 mmHg 45%
    15:00 +34°C° 0 mm 3 mps 755 mmHg 46%
    16:00 +34°C° 0 mm 3 mps 754 mmHg 47%
    17:00 +34°C° 0 mm 3 mps 754 mmHg 48%
    18:00 +31°C° 0 mm 3 mps 754 mmHg 55%
    19:00 +29°C° 0 mm 3 mps 755 mmHg 62%
    20:00 +27°C° 0 mm 3 mps 756 mmHg 69%
    21:00 +26°C° 0 mm 3 mps 756 mmHg 76%
    22:00 +25°C° 0 mm 2 mps 756 mmHg 83%
    23:00 +24°C° 0 mm 2 mps 757 mmHg 90%

    20 January, Sunday

    Time Temperature Precipitation Wind Pressure Humidity
    00:00 +24°C° 0 mm 2 mps 757 mmHg 93%
    01:00 +24°C° 0 mm 1 mps 756 mmHg 95%
    02:00 +23°C° 0 mm 1 mps 756 mmHg 98%
    03:00 +23°C° 0 mm 1 mps 756 mmHg 98%
    04:00 +23°C° 0 mm 1 mps 756 mmHg 98%
    05:00 +23°C° 0 mm 1 mps 756 mmHg 98%
    06:00 +24°C° 0 mm 1 mps 757 mmHg 95%
    07:00 +25°C° 0 mm 1 mps 757 mmHg 92%
    08:00 +25°C° 0 mm 2 mps 758 mmHg 89%
    09:00 +28°C° 0 mm 2 mps 758 mmHg 76%
    10:00 +30°C° 0 mm 3 mps 758 mmHg 62%
    11:00 +34°C° 0 mm 3 mps 758 mmHg 49%
    12:00 +35°C° 0 mm 3 mps 757 mmHg 45%
    13:00 +36°C° 0 mm 3 mps 756 mmHg 41%
    14:00 +37°C° 0 mm 3 mps 755 mmHg 37%
    15:00 +36°C° 0 mm 3 mps 755 mmHg 40%
    16:00 +35°C° 0 mm 3 mps 754 mmHg 43%
    17:00 +34°C° 0 mm 3 mps 754 mmHg 46%
    18:00 +31°C° 0 mm 3 mps 755 mmHg 54%
    19:00 +29°C° 0 mm 3 mps 755 mmHg 63%
    20:00 +27°C° 0 mm 3 mps 756 mmHg 71%
    21:00 +26°C° 0 mm 3 mps 756 mmHg 77%
    22:00 +25°C° 0 mm 2 mps 757 mmHg 83%
    23:00 +24°C° 0 mm 2 mps 757 mmHg 89%

    21 January, Monday

    Time Temperature Precipitation Wind Pressure Humidity
    00:00 +24°C° 0 mm 1 mps 757 mmHg 92%
    01:00 +24°C° 0 mm 1 mps 757 mmHg 94%
    02:00 +23°C° 0 mm 1 mps 756 mmHg 97%
    03:00 +23°C° 0 mm 1 mps 756 mmHg 98%
    04:00 +23°C° 0 mm 1 mps 756 mmHg 98%
    05:00 +23°C° 0 mm 1 mps 756 mmHg 98%
    06:00 +24°C° 0 mm 1 mps 757 mmHg 95%
    07:00 +25°C° 0 mm 1 mps 758 mmHg 92%
    08:00 +26°C° 0 mm 1 mps 758 mmHg 89%
    09:00 +27°C° 0.2 mm 2 mps 758 mmHg 81%
    10:00 +29°C° 0.2 mm 2 mps 758 mmHg 73%
    11:00 +31°C° 0.2 mm 3 mps 758 mmHg 65%
    12:00 +31°C° 0.3 mm 3 mps 758 mmHg 62%
    13:00 +33°C° 0.3 mm 3 mps 757 mmHg 59%
    14:00 +33°C° 0.3 mm 3 mps 756 mmHg 56%
    15:00 +33°C° 0.1 mm 3 mps 756 mmHg 55%
    16:00 +33°C° 0.1 mm 3 mps 755 mmHg 55%
    17:00 +33°C° 0.1 mm 3 mps 755 mmHg 54%
    18:00 +30°C° 0 mm 3 mps 755 mmHg 59%
    19:00 +29°C° 0 mm 3 mps 756 mmHg 65%
    20:00 +27°C° 0 mm 3 mps 756 mmHg 70%
    21:00 +27°C° 0 mm 3 mps 757 mmHg 76%
    22:00 +26°C° 0 mm 2 mps 757 mmHg 82%
    23:00 +25°C° 0 mm 2 mps 758 mmHg 88%

    22 January, Tuesday

    Time Temperature Precipitation Wind Pressure Humidity
    00:00 +24°C° 0 mm 2 mps 757 mmHg 91%
    01:00 +24°C° 0 mm 1 mps 757 mmHg 95%
    02:00 +23°C° 0 mm 1 mps 757 mmHg 98%
    03:00 +23°C° 0 mm 1 mps 757 mmHg 98%
    04:00 +23°C° 0 mm 1 mps 757 mmHg 98%
    05:00 +23°C° 0 mm 1 mps 757 mmHg 98%
    06:00 +24°C° 0.1 mm 2 mps 757 mmHg 95%
    07:00 +25°C° 0.1 mm 2 mps 758 mmHg 91%
    08:00 +26°C° 0.1 mm 2 mps 758 mmHg 88%
    09:00 +28°C° 0.1 mm 3 mps 758 mmHg 77%
    10:00 +30°C° 0.1 mm 3 mps 759 mmHg 66%
    11:00 +33°C° 0.1 mm 4 mps 759 mmHg 55%
    12:00 +34°C° 0 mm 4 mps 758 mmHg 50%
    13:00 +35°C° 0 mm 4 mps 757 mmHg 45%
    14:00 +36°C° 0 mm 4 mps 756 mmHg 40%
    15:00 +35°C° 0 mm 4 mps 756 mmHg 42%
    16:00 +34°C° 0 mm 4 mps 755 mmHg 45%
    17:00 +33°C° 0 mm 4 mps 755 mmHg 47%
    18:00 +31°C° 0 mm 3 mps 756 mmHg 56%
    19:00 +29°C° 0 mm 3 mps 756 mmHg 64%
    20:00 +27°C° 0 mm 3 mps 756 mmHg 73%
    21:00 +26°C° 0 mm 3 mps 757 mmHg 79%
    22:00 +25°C° 0 mm 3 mps 757 mmHg 85%
    23:00 +24°C° 0 mm 2 mps 757 mmHg 92%
    Show more